Flag for Belgium Weather past 2 weeks in Ghent, Belgium

Now
74 °F

Partly sunny.


Feels Like: 75 °F
Forecast: 63 / 81 °F
Wind: 3 mph from North

Location: Munte

Current Time: Jul 22, 2014 at 2:09:12 PM

Latest Report: Jul 22, 2014 at 1:00 PM


Visibility: 9 mi

Pressure: 30.10 "Hg

Humidity: 80%

Dew point: 68 °F

Location of GhentLocation

Historic Weather in Ghent — Graph

°F

Ghent temperature yesterday

Maximum temperature yesterday: 67 °F (at 10:00 AM)
Minimum temperature yesterday: 62 °F (at 4:00 AM)
Average temperature yesterday: 64 °F

Past Weeks' High & Low Weather Summary

 TemperatureHumidityPressure
High90 °F (Jul 18, 6:00 PM)100% (Jul 10, 10:00 AM)30.20 "Hg (Jul 10, 10:00 AM)
Low56 °F (Jul 15, 4:00 AM)37% (Jul 18, 6:00 PM)29.74 "Hg (Jul 13, 5:00 PM)
Average66 °F82%29.98 "Hg
* Reported Jul 7 12:00 Noon — Jul 22 12:00 Noon, Ghent, Weather by CustomWeather, © 2014

Note: Actual official high and low records may vary slightly from our data, if they occured in-between our weather recording intervals... More about our weather records

Advertising

Ghent weather history for previous 24 hours

 ConditionsComfort  
Time TempWeatherWind HumidityBarometerVisibility
12:00 PM
Jul 22
71 °FLow clouds.5 mph87%30.10 "Hg6 mi
11:00 AM67 °FLow clouds.5 mph95%30.10 "Hg4 mi
10:00 AM65 °FRain. Low clouds.5 mph97%30.10 "Hg3 mi
9:00 AM64 °FRain. Low clouds.6 mph97%30.09 "Hg4 mi
8:00 AM63 °FRain. Low clouds.5 mph99%30.08 "Hg4 mi
7:00 AM63 °FLow clouds.6 mph97%30.07 "Hg7 mi
6:00 AM64 °FRain. Low clouds.5 mph97%30.08 "Hg4 mi
5:00 AM64 °FDrizzle. Overcast.6 mph96%30.08 "Hg4 mi
4:00 AM64 °FFog.6 mph96%30.08 "Hg3 mi
3:00 AM64 °FMild.5 mph97%30.08 "Hg3 mi
2:00 AM64 °FMild.6 mph97%30.08 "Hg4 mi
1:00 AM64 °FMild.5 mph97%30.08 "Hg4 mi
12:00 AM64 °FMild.6 mph95%30.08 "Hg4 mi
11:00 PM
Jul 21
64 °FMild.7 mph94%30.08 "Hg6 mi
10:00 PM64 °FMild.6 mph96%30.07 "Hg6 mi
9:00 PM64 °FMild.6 mph96%30.06 "Hg6 mi
8:00 PM64 °FDrizzle. Cloudy.5 mph98%30.07 "Hg2 mi
7:00 PM64 °FLight rain. Cloudy.6 mph90%30.06 "Hg4 mi
6:00 PM66 °FMild.6 mph85%30.05 "Hg15 mi
5:00 PM65 °FMild.7 mph85%30.04 "Hg17 mi
4:00 PM65 °FMild.5 mph89%30.04 "Hg9 mi
3:00 PM64 °FMild.6 mph91%30.03 "Hg7 mi
2:00 PM65 °FMild.6 mph90%30.02 "Hg11 mi
Weather by CustomWeather, © 2014

See weather overviewHow to use our weather pages